Regional Weather Roundup
Issued by NWS

Home | Current Version | Previous Version | Text Only | Print | Product List | Glossary On
Versions: 1 2 3 4 5 6 7 8 9 10 11 12 13 14 15 16 17 18 19 20 21 22 23 24 25 26 27 28 29 30 31 32 33 34 35 36 37 38 39 40 41 42 43 44 45 46 47 48 49 50
000
ASUS44 KFWD 281915
RWRTX
NORTH TEXAS HOURLY WEATHER ROUNDUP
NATIONAL WEATHER SERVICE FORT WORTH TX
100 PM CST SAT FEB 28 2015

NOTE: "FAIR" INDICATES FEW OR NO CLOUDS BELOW 12,000 FEET WITH NO
SIGNIFICANT WEATHER AND/OR OBSTRUCTIONS TO VISIBILITY.

TXZ118-119-282000-
DALLAS/FORT WORTH METROPLEX

CITY           SKY/WX    TMP DP  RH WIND       PRES   REMARKS
DFW AIRPORT    FRZ DRZL  30  27  88 NE8       30.35F FOG     WCI  22
DALLAS LOVE    FRZ DRZL  31  28  89 E9        30.36F FOG     WCI  23
FTW MEACHAM    CLOUDY    31  27  85 NE7       30.35F WCI  24
DAL-EXECUTIVE  CLOUDY    30  28  92 NE8       30.33F FOG     WCI  22
FTW-ALLIANCE   FRZ DRZL  30  27  88 NE6       30.35F FOG     WCI  24
FTW-SPINKS     DRIZZLE   30  28  93 NE6       30.35F WCI  24
ARLINGTON      CLOUDY    31  26  82 NE6       30.36F WCI  25
GRAND PRAIRIE  LGT RAIN  30  30 100 N5        30.41  WCI  25
MESQUITE       FRZ DRZL  30  28  93 N5        30.38F WCI  25
LANCASTER      DRIZZLE   31  28  90 NE5       30.37F WCI  26
$$

TXZ091>094-102>105-117-120-121-131>134-282000-
NORTH CENTRAL TEXAS

CITY           SKY/WX    TMP DP  RH WIND       PRES   REMARKS
SHRMAN/DENISON MIX PCPN  30  30  99 E3        30.38F
GAINESVILLE    MIX PCPN  28  27  93 E3        30.39F
BOWIE          CLOUDY    29  27  94 CALM      30.34F
BRIDGEPORT     CLOUDY    29  29  97 E6        30.37F WCI  23
DECATUR        CLOUDY    29  28  94 NE8       30.33F WCI  21
DENTON         CLOUDY    29  27  92 NE7       30.35F FOG     WCI  22
MCKINNEY       MIX PCPN  30  28  92 E6        30.36F FOG     WCI  24
GREENVILLE     MIX PCPN  32  28  86 N3        30.39S
TERRELL        LGT RAIN  33  30  88 NE7       30.37F FOG     WCI  27
WAXAHACHIE     CLOUDY    31  31 100 NE5       30.35F WCI  26
CLEBURNE       CLOUDY    30  30 100 CALM      30.34F
GRANBURY       DRIZZLE   31  29  90 N3        30.36F
$$

TXZ083>090-098>101-113>116-127>130-139>142-154-155-282000-
WESTERN NORTH TEXAS

CITY           SKY/WX    TMP DP  RH WIND       PRES   REMARKS
WICHITA FALLS  FRZ RAIN  26  24  92 E3        30.34F FOG
WF-KICKAPOO    CLOUDY    28  26  92 CALM      30.36F FOG
VERNON         CLOUDY    25  20  81 CALM      30.35F
ABILENE        CLOUDY    25  23  92 E5        30.29F WCI  19
ABILENE-DYESS  CLOUDY    24  23  93 CALM      30.27F
BRECKENRIDGE   CLOUDY    30  27  88 E7        30.32F WCI  23
GRAHAM         CLOUDY    29  27  92 CALM      30.33F
MINERAL WELLS  CLOUDY    30  26  85 E5        30.33F WCI  25
STEPHENVILLE   CLOUDY    29  27  92 NE5       30.33F WCI  24
COMANCHE       CLOUDY    29  29 100 NE3       30.30F
BROWNWOOD      PTSUNNY   28  28 100 NE5       30.29F FOG     WCI  23
COLEMAN        CLOUDY    29  29 100 NE6       30.28F FOG     WCI  22
BRADY          CLOUDY    27  27 100 NE3       30.24F FOG
$$

TXZ143>147-156>162-174-175-282000-
CENTRAL TEXAS

CITY           SKY/WX    TMP DP  RH WIND       PRES   REMARKS
WACO           CLOUDY    33  30  88 N9        30.33F WCI  25
WACO-MCGREGOR    N/A     32  27  80 CALM      30.32F
HILLSBORO      CLOUDY    32  29  90 N8        30.33F WCI  25
CORSICANA      CLOUDY    35  31  85 N9        30.34F WCI  28
MEXIA          CLOUDY    37  31  79 MISG      30.31F
HEARNE         CLOUDY    42  31  65 N3        30.32F
CAMERON        CLOUDY    39  33  78 N9        30.29F WCI  33
TEMPLE         CLOUDY    34  28  80 CALM      30.29F
KILLEEN        CLOUDY    30  30 100 N10       30.28F FOG     WCI  21
KILLEEN-SKYLRK CLOUDY    32  27  80 CALM      30.28F
FORT HOOD      MIX PCPN  31  30  96 N9        30.28F FOG     WCI  23
GATESVILLE     PTSUNNY   32  30  93 CALM      30.33F FOG
HAMILTON       CLOUDY    31  31 100 E6        30.30F FOG     WCI  25
LAMPASAS       CLOUDY    30  29  96 N6        30.27F FOG     WCI  24
$$

TXZ095>097-106>112-122>126-135>138-148>153-164>167-282000-
EAST TEXAS

CITY           SKY/WX    TMP DP  RH WIND       PRES   REMARKS
PARIS          CLOUDY    30  25  80 E8        30.40S WCI  23
SULPHUR SPRNGS DRIZZLE   32  28  86 E7        30.39F WCI  26
MOUNT PLEASANT CLOUDY    35  25  66 E6        30.40F WCI  30
GILMER         CLOUDY    35  24  66 E5        30.37F WCI  30
MINEOLA        CLOUDY    36  28  75 NE3       30.38F
TYLER          CLOUDY    38  25  59 E6        30.34F WCI  33
LONGVIEW       CLOUDY    39  26  59 NE7       30.34F WCI  34
MARSHALL       MOSUNNY   39  27  61 E5        30.38F WCI  36
ATHENS         CLOUDY    36  28  75 CALM      30.35R
PALESTINE      CLOUDY    41  30  64 NE3       30.34F
JACKSONVILLE   CLOUDY    43  30  61 E5        30.33F WCI  40
HENDERSON      CLOUDY    41  28  60 E7        30.35F WCI  36
NACOGDOCHES    CLOUDY    45  30  57 E5        30.33F
LUFKIN         CLOUDY    47  32  56 CALM      30.33F
$$

SUPPLEMENTAL OBSERVATIONS (CENTRAL)

CITY           SKY/WX    TMP DP  RH WIND       PRES   REMARKS
$$

SUPPLEMENTAL OBSERVATIONS (WEST)

CITY           SKY/WX    TMP DP  RH WIND       PRES   REMARKS
$$

SUPPLEMENTAL OBSERVATIONS (EAST)

CITY           SKY/WX    TMP DP  RH WIND       PRES   REMARKS
$$

SUPPLEMENTAL OBSERVATIONS ARE A COLLECTION OF AUTOMATED INSTRUMENTS
THAT ARE MAINTAINED BY A VARIETY OF FEDERAL AND STATE AGENCIES.
CERTAIN ELEMENTS...SUCH AS HUMIDITY VALUES AND SUSTAINED WIND
SPEEDS...MAY BE APPROXIMATED.




USA.gov is the U.S. government's official web portal to all federal, state and local government web resources and services.